Regional Weather Roundup
Issued by NWS Columbia, SC

Home | Current Version | Previous Version | Text Only | Print | Product List | Glossary On
Versions: 1 2 3 4 5 6 7 8 9 10 11 12 13 14 15 16 17 18 19 20 21 22 23 24 25 26 27 28 29 30 31 32 33 34 35 36 37 38 39 40 41 42 43 44 45 46 47 48 49 50
000
ASUS42 KCAE 241210
RWRCAE
REGIONAL WEATHER ROUNDUP
NATIONAL WEATHER SERVICE COLUMBIA SC
700 AM EST FRI FEB 24 2017

NOTE: "FAIR" INDICATES FEW OR NO CLOUDS BELOW 12,000 FEET WITH NO
SIGNIFICANT WEATHER AND/OR OBSTRUCTIONS TO VISIBILITY.

NOT ALL STATIONS ARE QUALITY CONTROLLED BY THE NATIONAL
WEATHER SERVICE. USE DATA WITH CAUTION...ESPECIALLY
DEWPOINT OBSERVATIONS.

SCZ001>056-GAZ040-063>065-077-241300-
...UPSTATE SOUTH CAROLINA...

CITY           SKY/WX    TMP DP  RH WIND       PRES   REMARKS
ANDERSON       CLEAR     49  47  93 CALM      29.92R
6HR MIN TEMP:  48; 6HR MAX TEMP:  54;

LIBERTY        SUNNY     43  43  97 E3        29.92R
6HR MIN TEMP:  43; 6HR MAX TEMP:  50;

SPARTANBURG    CLEAR     46  45  93 CALM      29.93R
CLEMSON        CLEAR     55  51  86 CALM      29.93R
6HR MIN TEMP:  52; 6HR MAX TEMP:  60;

GREENVILLE     CLOUDY    53  49  86 CALM      29.93S
6HR MIN TEMP:  52; 6HR MAX TEMP:  60;

GREENWOOD      CLEAR     47  44  90 CALM      29.92S
6HR MIN TEMP:  46; 6HR MAX TEMP:  54;

GREER          CLOUDY    50  47  89 CALM      29.92R
6HR MIN TEMP:  49; 6HR MAX TEMP:  53;

ROCK HILL      PTCLDY    46  45  96 CALM      29.92S FOG
6HR MIN TEMP:  46; 6HR MAX TEMP:  52;

CHESTER        PTSUNNY   46  46 100 CALM      29.93S FOG
LAURENS        SUNNY     46  46 100 N3        29.92S FOG


...CENTRAL SOUTH CAROLINA...

CITY           SKY/WX    TMP DP  RH WIND       PRES   REMARKS
COLUMBIA APT   CLEAR     50  46  86 CALM      29.90R
6HR MIN TEMP:  49; 6HR MAX TEMP:  55;

COLUMBIA OWENS CLEAR     52  50  93 CALM      29.91S
6HR MIN TEMP:  52; 6HR MAX TEMP:  59;

MCENTIRE ANGB  CLEAR     51  50  99 CALM      29.90S
6HR MIN TEMP:  50; 6HR MAX TEMP:  55;

ORANGEBURG     CLEAR     53  52  96 CALM      29.90S FOG
6HR MIN TEMP:  53; 6HR MAX TEMP:  58;

SUMTER SHAW    CLEAR     52  51  95 NE6       29.88S
6HR MIN TEMP:  52; 6HR MAX TEMP:  55;

AIKEN          FOG       46  46 100 CALM      29.94R VSB 1/4
BARNWELL       FAIR      55  55 100 CALM      29.89S FOG
MANNING        FAIR      52  50  93 MISG      29.90S FOG
CAMDEN         FAIR      50  48  93 CALM      29.91S
LANCASTER      FOG       46  46 100 CALM      29.92S VSB 3/4
WINNSBORO      MOSUNNY   54  54 100 E5        29.91S


...EASTERN AND COASTAL SOUTH CAROLINA...

CITY           SKY/WX    TMP DP  RH WIND       PRES   REMARKS
MYRTLE BEACH   PTCLDY    57  55  94 N7        29.91R
N MYRTLE BCH   CLEAR     56  56 100 NE6       29.89R
6HR MIN TEMP:  56; 6HR MAX TEMP:  58;

CONWAY         FAIR      50  48  93 CALM      29.89F FOG
MARION         FAIR      52  52 100 NE3       29.90S
HARTSVILLE     FAIR      54  54 100 NE3       29.91R
FLORENCE       PTCLDY    54  54 100 NE5       29.90S
6HR MIN TEMP:  53; 6HR MAX TEMP:  56;

DARLINGTON     PTCLDY    49  48  97 N6        29.91S
6HR MIN TEMP:  49; 6HR MAX TEMP:  55;

CHARLESTON APT PTCLDY    57  56  96 N3        29.87R
6HR MIN TEMP:  57; 6HR MAX TEMP:  59;

MOUNT PLEASANT FAIR      57  57 100 CALM      29.87S FOG
WALTERBORO     FOG       52  52 100 CALM      29.89R VSB 1
BEAUFORT       CLEAR     57  57 100 N3        29.87R
6HR MIN TEMP:  57; 6HR MAX TEMP:  62;



...EASTERN GEORGIA...

CITY           SKY/WX    TMP DP  RH WIND       PRES   REMARKS
AUGUSTA BUSH F CLEAR     51  49  92 CALM      29.90R
6HR MIN TEMP:  50; 6HR MAX TEMP:  56;

AUGUSTA DANIEL PTCLDY    59  54  83 CALM      29.90S
6HR MIN TEMP:  59; 6HR MAX TEMP:  64;

THOMSON        PTCLDY    48  48 100 CALM      29.94S
6HR MIN TEMP:  48; 6HR MAX TEMP:  54;

WASHINGTON     FAIR      55  55 100 CALM      29.91R
CLAXTON        FAIR     N/A N/A N/A CALM      29.88R HAZE
SYLVANIA       FOG      N/A N/A N/A CALM      29.89S VSB 3/4
STATESBORO     CLOUDY    52  32  45 CALM      29.88S
6HR MIN TEMP:  52; 6HR MAX TEMP:  58;

SAVANNAH       PTCLDY    58  56  93 N3        29.87R
6HR MIN TEMP:  58; 6HR MAX TEMP:  61;



...SOUTHERN NORTH CAROLINA...

CITY           SKY/WX    TMP DP  RH WIND       PRES   REMARKS
CHARLOTTE      PTCLDY    50  48  93 N3        29.93R
6HR MIN TEMP:  48; 6HR MAX TEMP:  59;

MONROE         CLEAR     50  47  89 CALM      29.91S FOG
6HR MIN TEMP:  48; 6HR MAX TEMP:  57;

WADESBORO      CLOUDY    45  44  95 CALM      29.92S FOG
6HR MIN TEMP:  44; 6HR MAX TEMP:  51;

ROCKINGHAM     PTSUNNY   50  50 100 CALM      29.91F
6HR MIN TEMP:  48; 6HR MAX TEMP:  55;

RUTHERFORDTON  CLOUDY    47  47 100 CALM      29.94R
6HR MIN TEMP:  46; 6HR MAX TEMP:  56;

ASHEVILLE      CLEAR     41  39  93 CALM      29.95S
6HR MIN TEMP:  41; 6HR MAX TEMP:  46;


$$



USA.gov is the U.S. government's official web portal to all federal, state and local government web resources and services.